Time,TemperatureF,DewpointF,PressureIn,WindDirection,WindDirectionDegrees,WindSpeedMPH,WindSpeedGustMPH,Humidity,HourlyPrecipIn,Conditions,Clouds,dailyrainin,SolarRadiationWatts/m^2,SoftwareType,DateUTC
2013-12-12 00:02:00,1.0,-3.0,-100.00,NNE,25,4.0,5.0,82,-99.99,,,0.00,0.000000,,2013-12-12 07:02:00,
2013-12-12 00:11:00,1.0,-3.0,-100.00,NNE,25,4.0,5.0,82,-99.99,,,0.00,0.000000,,2013-12-12 07:11:00,
2013-12-12 00:42:00,0.0,-4.0,-100.00,NE,37,2.0,3.0,81,-99.99,,,0.00,0.000000,,2013-12-12 07:42:00,
2013-12-12 00:52:00,0.0,-4.0,-100.00,NE,37,2.0,3.0,81,-99.99,,,0.00,0.000000,,2013-12-12 07:52:00,
2013-12-12 01:02:00,0.0,-4.0,-100.00,NE,37,2.0,3.0,81,-99.99,,,0.00,0.000000,,2013-12-12 08:02:00,
2013-12-12 01:11:00,0.0,-4.0,-100.00,NE,37,2.0,3.0,81,-99.99,,,0.00,0.000000,,2013-12-12 08:11:00,
2013-12-12 01:42:00,0.0,-4.0,-100.00,NNE,19,2.0,3.0,80,-99.99,,,-99.99,0.000000,,2013-12-12 08:42:00,
2013-12-12 01:52:00,0.0,-4.0,-100.00,NNE,19,2.0,3.0,80,-99.99,,,-99.99,0.000000,,2013-12-12 08:52:00,
2013-12-12 02:02:00,0.0,-4.0,-100.00,NNE,19,2.0,3.0,80,-99.99,,,-99.99,0.000000,,2013-12-12 09:02:00,
2013-12-12 02:12:00,0.0,-4.0,-100.00,NNE,19,2.0,3.0,80,-99.99,,,-99.99,0.000000,,2013-12-12 09:12:00,
2013-12-12 02:43:00,0.0,-5.0,-100.00,North,-999,0.0,0.0,78,-99.99,,,0.00,0.000000,,2013-12-12 09:43:00,
2013-12-12 02:54:00,0.0,-5.0,-100.00,North,-999,0.0,0.0,78,-99.99,,,0.00,0.000000,,2013-12-12 09:54:00,
2013-12-12 03:03:00,0.0,-5.0,-100.00,North,-999,0.0,0.0,78,-99.99,,,0.00,0.000000,,2013-12-12 10:03:00,
2013-12-12 03:12:00,0.0,-5.0,-100.00,North,-999,0.0,0.0,78,-99.99,,,0.00,0.000000,,2013-12-12 10:12:00,
2013-12-12 03:43:00,1.0,-4.0,-100.00,ENE,62,1.0,3.0,79,-99.99,,,-99.99,0.000000,,2013-12-12 10:43:00,
2013-12-12 03:53:00,1.0,-4.0,-100.00,ENE,62,1.0,3.0,79,-99.99,,,-99.99,0.000000,,2013-12-12 10:53:00,
2013-12-12 04:02:00,1.0,-4.0,-100.00,ENE,62,1.0,3.0,79,-99.99,,,-99.99,0.000000,,2013-12-12 11:02:00,
2013-12-12 04:12:00,1.0,-4.0,-100.00,ENE,62,1.0,3.0,79,-99.99,,,-99.99,0.000000,,2013-12-12 11:12:00,
2013-12-12 04:42:00,-1.0,-5.0,-100.00,ESE,104,0.0,2.0,80,-99.99,,,0.00,0.000000,,2013-12-12 11:42:00,
2013-12-12 04:53:00,-1.0,-5.0,-100.00,ESE,104,0.0,2.0,80,-99.99,,,0.00,0.000000,,2013-12-12 11:53:00,
2013-12-12 05:02:00,-1.0,-5.0,-100.00,ESE,104,0.0,2.0,80,-99.99,,,0.00,0.000000,,2013-12-12 12:02:00,
2013-12-12 05:12:00,-1.0,-5.0,-100.00,ESE,104,0.0,2.0,80,-99.99,,,0.00,0.000000,,2013-12-12 12:12:00,
2013-12-12 05:42:00,-1.0,-6.0,-100.00,SSE,161,0.0,2.0,81,-99.99,,,-99.99,0.000000,,2013-12-12 12:42:00,
2013-12-12 05:52:00,-1.0,-6.0,-100.00,SSE,161,0.0,2.0,81,-99.99,,,-99.99,0.000000,,2013-12-12 12:52:00,
2013-12-12 06:01:00,-1.0,-6.0,-100.00,SSE,161,0.0,2.0,81,-99.99,,,-99.99,0.000000,,2013-12-12 13:01:00,
2013-12-12 06:11:00,-1.0,-6.0,-100.00,SSE,161,0.0,2.0,81,-99.99,,,-99.99,0.000000,,2013-12-12 13:11:00,
2013-12-12 06:42:00,0.0,-5.0,-100.00,North,358,3.0,4.0,80,-99.99,,,0.00,0.000000,,2013-12-12 13:42:00,
2013-12-12 06:52:00,0.0,-5.0,-100.00,North,358,3.0,4.0,80,-99.99,,,0.00,0.000000,,2013-12-12 13:52:00,
2013-12-12 07:02:00,0.0,-5.0,-100.00,North,358,3.0,4.0,80,-99.99,,,0.00,0.000000,,2013-12-12 14:02:00,
2013-12-12 07:11:00,0.0,-5.0,-100.00,North,358,3.0,4.0,80,-99.99,,,0.00,0.000000,,2013-12-12 14:11:00,
2013-12-12 07:52:00,-2.0,-7.0,-100.00,ESE,121,0.0,1.0,79,-99.99,,,0.00,0.000000,,2013-12-12 14:52:00,
2013-12-12 08:02:00,-2.0,-7.0,-100.00,ESE,121,0.0,1.0,79,-99.99,,,0.00,0.000000,,2013-12-12 15:02:00,
2013-12-12 08:11:00,-2.0,-7.0,-100.00,ESE,121,0.0,1.0,79,-99.99,,,0.00,0.000000,,2013-12-12 15:11:00,
2013-12-12 08:43:00,-5.0,-10.0,-100.00,WSW,257,1.0,4.0,77,-99.99,,,0.00,0.000000,,2013-12-12 15:43:00,
2013-12-12 08:54:00,-5.0,-10.0,-100.00,WSW,257,1.0,4.0,77,-99.99,,,0.00,0.000000,,2013-12-12 15:54:00,
2013-12-12 09:03:00,-5.0,-10.0,-100.00,WSW,257,1.0,4.0,77,-99.99,,,0.00,0.000000,,2013-12-12 16:03:00,
2013-12-12 09:43:00,-1.0,-6.0,-100.00,North,355,0.0,2.0,79,-99.99,,,0.00,16.500000,,2013-12-12 16:43:00,
2013-12-12 09:53:00,-1.0,-6.0,-100.00,North,355,0.0,2.0,79,-99.99,,,0.00,16.500000,,2013-12-12 16:53:00,
2013-12-12 10:02:00,-1.0,-6.0,-100.00,North,355,0.0,2.0,79,-99.99,,,0.00,16.500000,,2013-12-12 17:02:00,
2013-12-12 10:12:00,-1.0,-6.0,-100.00,North,355,0.0,2.0,79,-99.99,,,0.00,16.500000,,2013-12-12 17:12:00,
2013-12-12 10:43:00,5.0,1.0,-100.00,North,358,2.0,3.0,79,-99.99,,,0.00,203.380005,,2013-12-12 17:43:00,
2013-12-12 10:53:00,5.0,1.0,-100.00,North,358,2.0,3.0,79,-99.99,,,0.00,203.380005,,2013-12-12 17:53:00,
2013-12-12 11:02:00,5.0,1.0,-100.00,North,358,2.0,3.0,79,-99.99,,,0.00,203.380005,,2013-12-12 18:02:00,
2013-12-12 11:11:00,5.0,1.0,-100.00,North,358,2.0,3.0,79,-99.99,,,0.00,203.380005,,2013-12-12 18:11:00,
2013-12-12 11:43:00,10.0,5.0,-100.00,NNE,27,5.0,7.0,79,-99.99,,,0.00,332.619995,,2013-12-12 18:43:00,
2013-12-12 11:52:00,10.0,5.0,-100.00,NNE,27,5.0,7.0,79,-99.99,,,0.00,332.619995,,2013-12-12 18:52:00,
2013-12-12 12:01:00,10.0,5.0,-100.00,NNE,27,5.0,7.0,79,-99.99,,,0.00,332.619995,,2013-12-12 19:01:00,
2013-12-12 12:52:00,14.0,8.0,-100.00,North,8,11.0,14.0,76,-99.99,,,0.00,434.660004,,2013-12-12 19:52:00,
2013-12-12 13:02:00,14.0,8.0,-100.00,North,8,11.0,14.0,76,-99.99,,,0.00,434.660004,,2013-12-12 20:02:00,
2013-12-12 13:11:00,14.0,8.0,-100.00,North,8,11.0,14.0,76,-99.99,,,0.00,434.660004,,2013-12-12 20:11:00,
2013-12-12 13:42:00,19.0,12.0,-100.00,North,8,10.0,13.0,72,-99.99,,,0.00,477.899994,,2013-12-12 20:42:00,
2013-12-12 13:52:00,19.0,12.0,-100.00,North,8,10.0,13.0,72,-99.99,,,0.00,477.899994,,2013-12-12 20:52:00,
2013-12-12 14:02:00,19.0,12.0,-100.00,North,8,10.0,13.0,72,-99.99,,,0.00,477.899994,,2013-12-12 21:02:00,
2013-12-12 14:11:00,19.0,12.0,-100.00,North,8,10.0,13.0,72,-99.99,,,0.00,477.899994,,2013-12-12 21:11:00,
2013-12-12 14:53:00,23.0,13.0,-100.00,NE,39,5.0,10.0,66,-99.99,,,0.00,459.299988,,2013-12-12 21:53:00,
2013-12-12 15:03:00,23.0,13.0,-100.00,NE,39,5.0,10.0,66,-99.99,,,0.00,459.299988,,2013-12-12 22:03:00,
2013-12-12 15:12:00,23.0,13.0,-100.00,NE,39,5.0,10.0,66,-99.99,,,0.00,459.299988,,2013-12-12 22:12:00,
2013-12-12 15:43:00,23.0,15.0,-100.00,NNE,16,9.0,12.0,69,-99.99,,,0.00,388.989990,,2013-12-12 22:43:00,
2013-12-12 15:53:00,23.0,15.0,-100.00,NNE,16,9.0,12.0,69,-99.99,,,0.00,388.989990,,2013-12-12 22:53:00,
2013-12-12 16:02:00,23.0,15.0,-100.00,NNE,16,9.0,12.0,69,-99.99,,,0.00,388.989990,,2013-12-12 23:02:00,
2013-12-12 16:12:00,23.0,15.0,-100.00,NNE,16,9.0,12.0,69,-99.99,,,0.00,388.989990,,2013-12-12 23:12:00,
2013-12-12 16:43:00,23.0,15.0,-100.00,NNE,20,5.0,6.0,69,-99.99,,,0.00,268.820007,,2013-12-12 23:43:00,
2013-12-12 16:53:00,23.0,15.0,-100.00,NNE,20,5.0,6.0,69,-99.99,,,0.00,268.820007,,2013-12-12 23:53:00,
2013-12-12 17:02:00,23.0,15.0,-100.00,NNE,20,5.0,6.0,69,-99.99,,,0.00,268.820007,,2013-12-13 00:02:00,
2013-12-12 17:11:00,23.0,15.0,-100.00,NNE,20,5.0,6.0,69,-99.99,,,0.00,268.820007,,2013-12-13 00:11:00,
2013-12-12 17:42:00,19.0,12.0,-100.00,NNE,25,4.0,5.0,72,-99.99,,,0.00,111.690002,,2013-12-13 00:42:00,
2013-12-12 17:53:00,19.0,12.0,-100.00,NNE,25,4.0,5.0,72,-99.99,,,0.00,111.690002,,2013-12-13 00:53:00,
2013-12-12 18:02:00,19.0,12.0,-100.00,NNE,25,4.0,5.0,72,-99.99,,,0.00,111.690002,,2013-12-13 01:02:00,
2013-12-12 18:12:00,19.0,12.0,-100.00,NNE,25,4.0,5.0,72,-99.99,,,0.00,111.690002,,2013-12-13 01:12:00,
2013-12-12 18:42:00,14.0,8.0,-100.00,NE,37,3.0,4.0,76,-99.99,,,0.00,1.980000,,2013-12-13 01:42:00,
2013-12-12 18:52:00,14.0,8.0,-100.00,NE,37,3.0,4.0,76,-99.99,,,0.00,1.980000,,2013-12-13 01:52:00,
2013-12-12 19:01:00,14.0,8.0,-100.00,NE,37,3.0,4.0,76,-99.99,,,0.00,1.980000,,2013-12-13 02:01:00,
2013-12-12 19:11:00,14.0,8.0,-100.00,NE,37,3.0,4.0,76,-99.99,,,0.00,1.980000,,2013-12-13 02:11:00,
2013-12-12 19:42:00,11.0,6.0,-100.00,North,10,2.0,3.0,80,-99.99,,,0.00,0.000000,,2013-12-13 02:42:00,
2013-12-12 19:52:00,11.0,6.0,-100.00,North,10,2.0,3.0,80,-99.99,,,0.00,0.000000,,2013-12-13 02:52:00,
2013-12-12 20:02:00,11.0,6.0,-100.00,North,10,2.0,3.0,80,-99.99,,,0.00,0.000000,,2013-12-13 03:02:00,
2013-12-12 20:11:00,11.0,6.0,-100.00,North,10,2.0,3.0,80,-99.99,,,0.00,0.000000,,2013-12-13 03:11:00,
2013-12-12 20:43:00,9.0,5.0,-100.00,NE,49,3.0,4.0,82,-99.99,,,0.00,0.000000,,2013-12-13 03:43:00,
2013-12-12 20:53:00,9.0,5.0,-100.00,NE,49,3.0,4.0,82,-99.99,,,0.00,0.000000,,2013-12-13 03:53:00,
2013-12-12 21:03:00,9.0,5.0,-100.00,NE,49,3.0,4.0,82,-99.99,,,0.00,0.000000,,2013-12-13 04:03:00,
2013-12-12 21:12:00,9.0,5.0,-100.00,NE,49,3.0,4.0,82,-99.99,,,0.00,0.000000,,2013-12-13 04:12:00,
2013-12-12 21:44:00,8.0,4.0,-100.00,North,6,5.0,7.0,85,-99.99,,,0.00,0.000000,,2013-12-13 04:44:00,
2013-12-12 21:52:00,8.0,4.0,-100.00,North,6,5.0,7.0,85,-99.99,,,0.00,0.000000,,2013-12-13 04:52:00,
2013-12-12 22:02:00,8.0,4.0,-100.00,North,6,5.0,7.0,85,-99.99,,,0.00,0.000000,,2013-12-13 05:02:00,
2013-12-12 22:12:00,8.0,4.0,-100.00,North,6,5.0,7.0,85,-99.99,,,0.00,0.000000,,2013-12-13 05:12:00,
2013-12-12 22:42:00,6.0,3.0,-100.00,ESE,104,0.0,2.0,85,-99.99,,,0.00,0.000000,,2013-12-13 05:42:00,
2013-12-12 22:53:00,6.0,3.0,-100.00,ESE,104,0.0,2.0,85,-99.99,,,0.00,0.000000,,2013-12-13 05:53:00,
2013-12-12 23:02:00,6.0,3.0,-100.00,ESE,104,0.0,2.0,85,-99.99,,,0.00,0.000000,,2013-12-13 06:02:00,
2013-12-12 23:12:00,6.0,3.0,-100.00,ESE,104,0.0,2.0,85,-99.99,,,0.00,0.000000,,2013-12-13 06:12:00,
2013-12-12 23:43:00,3.0,-1.0,-100.00,NE,42,4.0,5.0,83,-99.99,,,0.00,0.000000,,2013-12-13 06:43:00,
2013-12-12 23:52:00,3.0,-1.0,-100.00,NE,42,4.0,5.0,83,-99.99,,,0.00,0.000000,,2013-12-13 06:52:00,